Location: Courcelles
(49.2596°N, 1.7419°E)
Time: 23:43:01
(UTC+00:00)

Cosmos 2084 Rocket - Pass Details

Date: 17 November 2025
Orbit: 549 x 566 km, 62.8° (Epoch: 05 December)

Event Time Altitude Azimuth Distance (km) Brightness Sun altitude
Rises 16:34:29 0° 218° (SW) 2,733 8.1 -4.6°
Reaches altitude 10° 16:36:42 10° 217° (SW) 1,844 7.1 -4.9°
Maximum altitude 16:40:51 79° 130° (SE) 579 3.4 -5.5°
Drops below altitude 10° 16:45:03 10° 45° (NE) 1,866 5.4 -6.2°
Enters shadow 16:45:55 - 45° (NE) 2,210 5.8 -6.3°
